Weather History for Asheboro, NC

Change the Weather History Date:

Friday, August 17, 2012

  Actual Average Record
Temperature  
Mean Temperature 74 °F -  
Max Temperature 86 °F 86 °F 101 °F (1988)
Min Temperature 62 °F 67 °F 54 °F (1979)
Cooling Degree Days 9    
Growing Degree Days 24 (Base 50)    
Moisture  
Dew Point 65 °F    
Average Humidity 82    
Maximum Humidity 100    
Minimum Humidity 45    
Precipitation  
Precipitation 0.13 in - - ()
Sea Level Pressure  
Sea Level Pressure 29.96 in    
Wind  
Wind Speed 1 mph (SW)    
Max Wind Speed 8 mph    
Max Gust Speed -    
Visibility 8 miles    
Events Rain    
Averages and records for this station are not official NWS values.
T = Trace of Precipitation, MM = Missing Value Source: NWS Daily Summary

Daily Weather History Graph

Daily Weather History Graph

Search for Another Location

Airport:

Trip Planner

Search our weather history database for the weather conditions in past years. The results will help you decide how hot, cold, wet, or windy it might be!

Date:

Astronomy

Aug. 17, 2012 Rise Set
Actual Time 6:40 AM EDT 8:05 PM EDT
Civil Twilight 6:13 AM EDT 8:32 PM EDT
Nautical Twilight 5:41 AM EDT 9:04 PM EDT
Astronomical Twilight 5:07 AM EDT 9:38 PM EDT
Moon 6:39 AM EDT (8/17) 7:51 PM EDT (8/17)
Length of Visible Light 14h 19m
Length of Day
13h 25m
New Moon, 0% of the Moon is Illuminated
Aug 17
New Moon
Aug 24
First Quarter
Aug 31
Full
Sep 8
Last Quarter
Sep 15
New

Hourly Weather History & Observations

Time (EDT) Temp. Heat Index Dew Point Humidity Pressure Visibility Wind Dir Wind Speed Gust Speed Precip Events Conditions
12:15 AM 66.2 °F - 64.4 °F 94% 30.04 in 7.0 mi Calm Calm - N/A   Clear
12:55 AM 66.2 °F - 64.4 °F 94% 30.03 in 7.0 mi Calm Calm - N/A   Clear
1:15 AM 66.2 °F - 64.4 °F 94% 30.02 in 7.0 mi Calm Calm - N/A   Clear
1:35 AM 66.2 °F - 64.4 °F 94% 30.01 in 7.0 mi Calm Calm - N/A   Clear
1:55 AM 64.4 °F - 64.4 °F 100% 30.01 in 7.0 mi Calm Calm - N/A   Clear
2:15 AM 64.4 °F - 64.4 °F 100% 30.01 in 7.0 mi Calm Calm - N/A   Clear
2:35 AM 64.4 °F - 64.4 °F 100% 30.01 in 5.0 mi Calm Calm - N/A   Clear
2:55 AM 64.4 °F - 64.4 °F 100% 29.99 in 5.0 mi Calm Calm - N/A   Clear
3:15 AM 64.4 °F - 64.4 °F 100% 29.99 in 5.0 mi Calm Calm - N/A   Clear
3:35 AM 64.4 °F - 62.6 °F 94% 29.99 in 5.0 mi Calm Calm - N/A   Clear
3:55 AM 64.4 °F - 62.6 °F 94% 29.99 in 7.0 mi Calm Calm - N/A   Clear
4:15 AM 64.4 °F - 62.6 °F 94% 29.98 in 5.0 mi Calm Calm - N/A   Clear
4:35 AM 64.4 °F - 62.6 °F 94% 29.97 in 7.0 mi Calm Calm - N/A   Clear
4:55 AM 64.4 °F - 62.6 °F 94% 29.96 in 7.0 mi Calm Calm - N/A   Clear
5:15 AM 62.6 °F - 62.6 °F 100% 29.96 in 5.0 mi Calm Calm - N/A   Clear
5:35 AM 62.6 °F - 62.6 °F 100% 29.96 in 5.0 mi Calm Calm - N/A   Clear
5:55 AM 62.6 °F - 62.6 °F 100% 29.96 in 5.0 mi Calm Calm - N/A   Clear
6:15 AM 62.6 °F - 62.6 °F 100% 29.97 in 5.0 mi Calm Calm - N/A   Clear
6:35 AM 62.6 °F - 62.6 °F 100% 29.97 in 5.0 mi Calm Calm - N/A   Clear
6:55 AM 62.6 °F - 60.8 °F 94% 29.98 in 5.0 mi Calm Calm - N/A   Clear
7:15 AM 62.6 °F - 60.8 °F 94% 29.99 in 5.0 mi Calm Calm - N/A   Clear
7:35 AM 62.6 °F - 62.6 °F 100% 29.99 in 5.0 mi Calm Calm - N/A   Clear
7:55 AM 64.4 °F - 62.6 °F 94% 29.99 in 7.0 mi Calm Calm - N/A   Scattered Clouds
8:15 AM 64.4 °F - 64.4 °F 100% 29.99 in 5.0 mi Calm Calm - N/A   Scattered Clouds
8:35 AM 68.0 °F - 64.4 °F 88% 29.98 in 7.0 mi Calm Calm - N/A   Clear
8:55 AM 69.8 °F - 66.2 °F 88% 29.98 in 7.0 mi Calm Calm - N/A   Clear
9:15 AM 73.4 °F - 64.4 °F 73% 29.98 in 10.0 mi Calm Calm - N/A   Clear
9:35 AM 73.4 °F - 64.4 °F 73% 29.99 in 10.0 mi SSW 4.6 mph - N/A   Clear
10:15 AM 77.0 °F - 66.2 °F 69% 29.99 in 10.0 mi WSW 4.6 mph - N/A   Clear
10:35 AM 78.8 °F - 66.2 °F 65% 29.99 in 10.0 mi WSW 8.1 mph - N/A   Clear
10:55 AM 78.8 °F - 64.4 °F 61% 29.99 in 10.0 mi SW 8.1 mph - N/A   Clear
11:15 AM 80.6 °F 82.3 °F 64.4 °F 58% 29.99 in 10.0 mi SSW 4.6 mph - N/A   Clear
11:55 AM 80.6 °F 82.3 °F 64.4 °F 58% 29.99 in 10.0 mi WSW 5.8 mph - N/A   Clear
12:15 PM 82.4 °F 83.4 °F 62.6 °F 51% 29.98 in 10.0 mi SW 6.9 mph - N/A   Clear
12:35 PM 82.4 °F 83.9 °F 64.4 °F 54% 29.98 in 10.0 mi WSW 4.6 mph - N/A   Clear
12:55 PM 84.2 °F 85.6 °F 64.4 °F 51% 29.97 in 10.0 mi SSW 4.6 mph - N/A   Scattered Clouds
1:15 PM 84.2 °F 85.0 °F 62.6 °F 48% 29.97 in 10.0 mi South 6.9 mph - N/A   Scattered Clouds
1:35 PM 82.4 °F 83.4 °F 62.6 °F 51% 29.96 in 10.0 mi SSW 4.6 mph - N/A   Clear
1:55 PM 86.0 °F 86.6 °F 62.6 °F 45% 29.96 in 10.0 mi SW 3.5 mph - N/A   Clear
2:15 PM 84.2 °F 85.6 °F 64.4 °F 51% 29.94 in 10.0 mi South 5.8 mph - N/A   Clear
2:35 PM 84.2 °F 85.6 °F 64.4 °F 51% 29.93 in 10.0 mi WSW 4.6 mph - N/A   Clear
2:55 PM 84.2 °F 85.6 °F 64.4 °F 51% 29.92 in 10.0 mi South 4.6 mph - N/A   Clear
3:15 PM 86.0 °F 87.3 °F 64.4 °F 48% 29.90 in 10.0 mi South 6.9 mph - N/A   Scattered Clouds
3:35 PM 86.0 °F 86.6 °F 62.6 °F 45% 29.89 in 10.0 mi SSW 3.5 mph - N/A   Scattered Clouds
3:55 PM 86.0 °F 87.3 °F 64.4 °F 48% 29.89 in 10.0 mi Calm Calm - N/A   Clear
4:15 PM 86.0 °F 86.6 °F 62.6 °F 45% 29.89 in 10.0 mi SSW 3.5 mph - N/A   Clear
4:35 PM 86.0 °F 87.3 °F 64.4 °F 48% 29.88 in 10.0 mi Calm Calm - N/A   Clear
4:55 PM 86.0 °F 86.6 °F 62.6 °F 45% 29.88 in 10.0 mi Calm Calm - N/A   Clear
5:15 PM 82.4 °F 86.3 °F 69.8 °F 66% 29.88 in 10.0 mi Calm Calm - N/A   Clear
5:35 PM 80.6 °F 84.6 °F 71.6 °F 74% 29.89 in 10.0 mi Calm Calm - N/A   Clear
5:55 PM 78.8 °F - 68.0 °F 69% 29.90 in 10.0 mi West 4.6 mph - N/A Rain Rain
6:15 PM 75.2 °F - 71.6 °F 89% 29.91 in 5.0 mi SSW 5.8 mph - 0.03 in Rain Rain
6:35 PM 71.6 °F - 69.8 °F 94% 29.90 in 5.0 mi South 3.5 mph - 0.07 in Rain Rain
6:55 PM 71.6 °F - 69.8 °F 94% 29.90 in 4.0 mi South 8.1 mph - 0.12 in Rain Rain
7:15 PM 71.6 °F - 69.8 °F 94% 29.91 in 7.0 mi South 8.1 mph - 0.01 in Rain Light Rain
7:35 PM 71.6 °F - 69.8 °F 94% 29.92 in 10.0 mi SW 3.5 mph - 0.01 in   Light Drizzle
7:55 PM 69.8 °F - 69.8 °F 100% 29.92 in 10.0 mi NW 4.6 mph - 0.01 in   Clear
8:15 PM 69.8 °F - 69.8 °F 100% 29.92 in 7.0 mi Calm Calm - N/A   Clear
8:35 PM 69.8 °F - 69.8 °F 100% 29.92 in 7.0 mi Calm Calm - N/A   Scattered Clouds
8:55 PM 69.8 °F - 69.8 °F 100% 29.93 in 7.0 mi Calm Calm - N/A   Clear
9:15 PM 69.8 °F - 69.8 °F 100% 29.93 in 7.0 mi Calm Calm - N/A   Clear
9:35 PM 69.8 °F - 69.8 °F 100% 29.94 in 10.0 mi Calm Calm - N/A   Clear
9:55 PM 69.8 °F - 69.8 °F 100% 29.94 in 10.0 mi Calm Calm - N/A   Clear
10:15 PM 69.8 °F - 69.8 °F 100% 29.95 in 7.0 mi Calm Calm - N/A   Clear
10:35 PM 69.8 °F - 68.0 °F 94% 29.95 in 10.0 mi Calm Calm - N/A   Clear
10:55 PM 68.0 °F - 68.0 °F 100% 29.96 in 10.0 mi Calm Calm - N/A   Clear
11:15 PM 68.0 °F - 68.0 °F 100% 29.95 in 10.0 mi Calm Calm - N/A   Scattered Clouds
11:35 PM 68.0 °F - 68.0 °F 100% 29.95 in 10.0 mi Calm Calm - N/A   Clear
11:55 PM 68.0 °F - 68.0 °F 100% 29.94 in 10.0 mi SW 4.6 mph - N/A   Clear